[[{"header":{"parameterUnit":"m.s-1","parameterCategory":1,"la1":30.2991,"la2":30.254,"lo1":-89.0895,"lo2":-89.0444,"dy":0.0017,"dx":0.0017,"nx":28,"ny":28,"refTime":"2023-04-22T21:00:00:Z","depth":0,"parameterNumber":2,"parameterNumberName":"U-component_of_WINDS"},"data":[0,0,0,0,0,0,0,0,0,0,0,0,0,0,0,0,0,0,0,0,0,0,0,0,0,0,0,0,0,0,0,0,0,0,0,0,0,0,0,0,0,0,0,0,0,0,0,0,0,0,0,0,0,0,0,0,0,0,-2.2228,-2.2227,0,-2.2144,-2.2143,-2.2142,-2.2091,-2.2091,-2.2091,-2.2091,-2.2,-2.1998,-2.1995,0,0,0,0,0,0,0,0,0,0,0,0,0,-2.2337,-2.2335,-2.2228,-2.2227,-2.2226,-2.2145,-2.2143,-2.2142,-2.2091,-2.2091,-2.2091,-2.209,-2.2,-2.1998,-2.1995,0,0,0,0,0,0,0,0,0,0,0,0,0,-2.2275,-2.2335,-2.2228,-2.2191,-2.2187,-2.2145,-2.2143,-2.2142,-2.2091,-2.2091,-2.2091,-2.209,-2.2001,-2.1998,-2.1995,-2.1982,0,0,-2.1985,-2.1983,0,0,0,0,0,0,0,0,-2.2279,-2.2271,-2.2197,-2.2193,-2.2188,-2.2128,-2.2148,-2.2088,-2.2091,-2.2127,-2.2091,-2.209,-2.2042,-2.2036,-2.2021,-2.1978,-2.1974,-2.1985,-2.1983,-2.1981,-2.198,0,0,0,0,0,0,0,-2.2283,-2.2274,-2.2195,-2.2196,-2.2191,-2.2176,-2.2167,-2.2137,-2.2088,-2.2124,-2.212,-2.2111,-2.204,-2.2024,-2.2018,-2.1973,-2.1985,-2.1982,-2.198,-2.1978,-2.1913,-2.1913,0,0,0,0,0,0,-2.2294,-2.2278,-2.2197,-2.2192,-2.2234,-2.2174,-2.2164,-2.2148,-2.2088,-2.2079,-2.2112,-2.2109,-2.203,-2.2022,-2.2015,-2.1994,-2.1981,-2.1978,-2.1976,-2.1912,-2.1913,-2.1913,0,0,0,0,0,0,-2.2297,-2.2287,-2.2201,-2.2234,-2.2222,-2.2173,-2.2155,-2.2146,-2.213,-2.2079,-2.2069,-2.2105,-2.2029,-2.2019,-2.199,-2.1991,-2.1977,-2.1974,-2.1912,-2.1912,-2.1913,-2.1955,0,0,0,0,0,0,-2.23,-2.2289,-2.2285,-2.2235,-2.2221,-2.218,-2.2155,-2.2145,-2.2125,-2.2121,-2.207,-2.2061,-2.2028,-2.1996,-2.1987,-2.1986,-2.1971,-2.1912,-2.1912,-2.1913,-2.1953,-2.1957,-2.196,0,0,0,0,0,-2.2304,-2.2299,-2.2285,-2.2275,-2.2215,-2.218,-2.2172,-2.2136,-2.2126,-2.212,-2.2087,-2.2062,-2.1992,-2.1993,-2.1983,-2.1981,-2.1912,-2.1912,-2.1913,-2.1952,-2.1956,-2.1959,0,0,0,0,0,0,-2.2349,-2.2292,-2.2275,-2.2255,-2.2223,-2.2172,-2.2164,-2.2142,-2.211,-2.2108,-2.2063,-2.2051,-2.2027,-2.2001,-2.2003,-2.1964,-2.1949,-2.1947,-2.1982,-2.1986,-2.1989,-2.1995,-2.1968,0,0,0,0,0,-2.2357,-2.2335,-2.2286,-2.2272,-2.2257,-2.2213,-2.2197,-2.2172,-2.2136,-2.2122,-2.2086,-2.2051,-2.2021,-2.2002,-2.1971,-2.1949,-2.1936,-2.1943,-2.1946,-2.1949,-2.1948,-2.1932,-2.1934,-2.1914,-2.1914,-2.1914,0,0,-2.2372,-2.2338,-2.2327,-2.228,-2.2252,-2.2229,-2.2202,-2.2179,-2.216,-2.2118,-2.2088,-2.2061,-2.2019,-2.1993,-2.198,-2.197,-2.195,-2.1949,-2.1952,-2.1949,-2.1933,-2.1935,-2.1936,-2.1915,-2.1915,-2.1915,0,0,-2.2387,-2.2361,-2.2346,-2.2319,-2.2278,-2.2249,-2.2245,-2.2197,-2.2178,-2.2148,-2.2115,-2.2092,-2.2041,-2.2012,-2.199,-2.1994,-2.1969,-2.1985,-2.2001,-2.1986,-2.1988,-2.1989,-2.1989,-2.1989,-2.1984,-2.1984,-2.1984,0,-2.2411,-2.2376,-2.234,-2.2319,-2.2298,-2.226,-2.2243,-2.2218,-2.2169,-2.2154,-2.2145,-2.208,-2.2049,-2.2015,-2.2016,-2.2,-2.1993,-2.199,-2.1991,-2.1992,-2.1992,-2.1991,-2.1992,-2.1986,-2.1986,-2.1986,-2.1986,0,-2.2406,-2.2383,-2.2375,-2.233,-2.2309,-2.229,-2.2248,-2.223,-2.2207,-2.2178,-2.2147,-2.2109,-2.2069,-2.2059,-2.2036,-2.2021,-2.2017,-2.2,-2.1984,-2.1997,-2.1995,-2.1995,-2.1989,-2.1989,-2.1988,-2.1987,0,0,-2.2448,-2.2383,-2.2381,-2.2359,-2.2311,-2.2291,-2.2269,-2.2232,-2.2217,-2.2184,-2.2163,-2.212,-2.2104,-2.208,-2.2053,-2.204,-2.2043,-2.2024,-2.2023,-2.2028,-2.2023,-2.2035,-2.2036,-2.2027,-2.2027,-2.2027,-2.2026,0,-2.2455,-2.2417,-2.2383,-2.2356,-2.2332,-2.2295,-2.2276,-2.2243,-2.2215,-2.2189,-2.2158,-2.2128,-2.211,-2.2095,-2.2081,-2.2046,-2.2042,-2.2046,-2.2005,-2.2004,-2.2016,-2.2035,-2.2048,-2.2049,-2.2025,-2.2025,-2.2025,0,-2.2459,-2.2429,-2.24,-2.2353,-2.2342,-2.2326,-2.2288,-2.2265,-2.2226,-2.2206,-2.2179,-2.215,-2.2123,-2.211,-2.2071,-2.2074,-2.2055,-2.2036,-2.2035,-2.2029,-2.2015,-2.2028,-2.2049,-2.2049,-2.2024,-2.2024,-2.2024,0,-2.2491,-2.2443,-2.2419,-2.2402,-2.2347,-2.2336,-2.2312,-2.2273,-2.2253,-2.2219,-2.2205,-2.2168,-2.2147,-2.2118,-2.208,-2.2074,-2.2044,-2.2028,-2.2025,-2.2026,-2.2019,-2.202,-2.2036,-2.2009,-2.2009,-2.2009,-2.2009,0,-2.2502,-2.2486,-2.2432,-2.2418,-2.2397,-2.2357,-2.2337,-2.231,-2.2275,-2.2253,-2.2218,-2.2197,-2.2148,-2.212,-2.209,-2.2061,-2.2052,-2.2034,-2.2025,-2.2036,-2.2038,-2.2023,-2.2021,-2.2009,-2.2009,-2.2009,-2.2009,0,-2.2534,-2.2498,-2.2469,-2.242,-2.2407,-2.2394,-2.2351,-2.2333,-2.2304,-2.2276,-2.2267,-2.2219,-2.2185,-2.2144,-2.2096,-2.2075,-2.2048,-2.2036,-2.2062,-2.2057,-2.2056,-2.2056,-2.2061,-2.2059,-2.2035,-2.2036,-2.2036,0,-2.2543,-2.253,-2.2479,-2.2463,-2.2441,-2.2414,-2.2393,-2.2353,-2.2332,-2.2286,-2.2274,-2.2238,-2.2206,-2.2153,-2.2112,-2.2075,-2.2061,-2.2066,-2.2055,-2.2066,-2.206,-2.2061,-2.2058,-2.2068,-2.2069,-2.2069,-2.207,0,-2.2563,-2.2546,-2.2518,-2.2484,-2.2461,-2.2431,-2.24,-2.2388,-2.2341,-2.2319,-2.2285,-2.226,-2.2212,-2.2175,-2.2132,-2.2105,-2.2078,-2.2073,-2.207,-2.2081,-2.2096,-2.2086,-2.2068,-2.2073,-2.2073,-2.2073,-2.2072,-2.2072,-2.2583,-2.2569,-2.2531,-2.2501,-2.2474,-2.2445,-2.2427,-2.2395,-2.2366,-2.2325,-2.2302,-2.2268,-2.2227,-2.2167,-2.2141,-2.2112,-2.2102,-2.2099,-2.2097,-2.2097,-2.2099,-2.2101,-2.2104,-2.2104,-2.2103,-2.2103,-2.2103,0,-2.26,-2.2574,-2.2547,-2.2505,-2.2481,-2.2461,-2.2425,-2.2405,-2.2376,-2.2341,-2.2312,-2.2271,-2.2235,-2.2192,-2.2152,-2.2137,-2.2124,-2.2128,-2.2128,-2.2122,-2.2111,-2.2117,-2.2139,-2.2139,-2.2139,-2.2139,-2.2139,-2.2139,-2.2606,-2.258,-2.2559,-2.2518,-2.2492,-2.246,-2.2441,-2.2413,-2.2385,-2.2342,-2.2313,-2.2286,-2.2247,-2.2204,-2.2169,-2.2157,-2.2144,-2.2151,-2.2136,-2.2126,-2.2123,-2.212,-2.2125,-2.2149,-2.2149,-2.2149,-2.2149,-2.2149]},{"header":{"parameterUnit":"m.s-1","parameterCategory":1,"la1":30.2991,"la2":30.254,"lo1":-89.0895,"lo2":-89.0444,"dy":0.0017,"dx":0.0017,"nx":28,"ny":28,"refTime":"2023-04-22T21:00:00:Z","depth":0,"parameterNumber":3,"parameterNumberName":"V-component_of_WINDS"},"data":[0,0,0,0,0,0,0,0,0,0,0,0,0,0,0,0,0,0,0,0,0,0,0,0,0,0,0,0,0,0,0,0,0,0,0,0,0,0,0,0,0,0,0,0,0,0,0,0,0,0,0,0,0,0,0,0,0,0,-9.8048,-9.8048,0,-9.8115,-9.8116,-9.8117,-9.803,-9.8027,-9.8024,-9.8021,-9.8086,-9.809,-9.8095,0,0,0,0,0,0,0,0,0,0,0,0,0,-9.7836,-9.7841,-9.8048,-9.8048,-9.8049,-9.8115,-9.8116,-9.8117,-9.8031,-9.8027,-9.8023,-9.802,-9.8084,-9.809,-9.8095,0,0,0,0,0,0,0,0,0,0,0,0,0,-9.7918,-9.7842,-9.8047,-9.8014,-9.8012,-9.8115,-9.8116,-9.8117,-9.8032,-9.8027,-9.8022,-9.8018,-9.8082,-9.8089,-9.8096,-9.8233,0,0,-9.8117,-9.812,0,0,0,0,0,0,0,0,-9.7914,-9.7926,-9.8018,-9.8017,-9.8014,-9.806,-9.8065,-9.8156,-9.8033,-9.8024,-9.8021,-9.8015,-9.808,-9.8087,-9.811,-9.8236,-9.8239,-9.8118,-9.8122,-9.8125,-9.8127,0,0,0,0,0,0,0,-9.7908,-9.7923,-9.8074,-9.802,-9.8017,-9.7994,-9.8,-9.8082,-9.8078,-9.8024,-9.8018,-9.8028,-9.8078,-9.8104,-9.8111,-9.824,-9.8118,-9.8124,-9.8128,-9.8131,-9.8476,-9.8481,0,0,0,0,0,0,-9.7907,-9.7919,-9.8072,-9.8076,-9.7952,-9.8001,-9.8008,-9.805,-9.8077,-9.8076,-9.8032,-9.8024,-9.8094,-9.8103,-9.8113,-9.8271,-9.8125,-9.8131,-9.8135,-9.8471,-9.8477,-9.8482,0,0,0,0,0,0,-9.7903,-9.7922,-9.8069,-9.7996,-9.8013,-9.801,-9.8057,-9.8054,-9.8079,-9.8082,-9.808,-9.8059,-9.8091,-9.8103,-9.8203,-9.8272,-9.8135,-9.8141,-9.8465,-9.8473,-9.848,-9.8591,0,0,0,0,0,0,-9.7897,-9.7921,-9.7975,-9.7998,-9.8017,-9.8161,-9.8061,-9.8058,-9.8092,-9.8081,-9.8107,-9.8107,-9.8088,-9.8193,-9.821,-9.8279,-9.8146,-9.8459,-9.8469,-9.8477,-9.8581,-9.8602,-9.8619,0,0,0,0,0,-9.789,-9.8004,-9.7978,-9.7997,-9.8085,-9.8165,-9.8176,-9.8153,-9.8098,-9.815,-9.8152,-9.8106,-9.8263,-9.8204,-9.8222,-9.8295,-9.8454,-9.8466,-9.8477,-9.8573,-9.8598,-9.8619,0,0,0,0,0,0,-9.7988,-9.8006,-9.7978,-9.8103,-9.8133,-9.815,-9.8216,-9.8181,-9.8227,-9.8215,-9.8184,-9.819,-9.8296,-9.8306,-9.824,-9.8426,-9.8349,-9.8364,-9.8416,-9.8439,-9.8458,-9.8452,-9.8152,0,0,0,0,0,-9.8025,-9.8091,-9.8102,-9.8211,-9.8227,-9.822,-9.8254,-9.8233,-9.8263,-9.8275,-9.8284,-9.8312,-9.8367,-9.8404,-9.8456,-9.8583,-9.8585,-9.8642,-9.8661,-9.8676,-9.8689,-9.8752,-9.8776,-9.8519,-9.8519,-9.8519,0,0,-9.81,-9.8118,-9.8161,-9.8231,-9.8252,-9.8317,-9.8231,-9.8305,-9.8352,-9.8285,-9.8379,-9.8387,-9.8417,-9.853,-9.858,-9.8541,-9.876,-9.8691,-9.8703,-9.8707,-9.8766,-9.879,-9.8812,-9.8527,-9.8526,-9.8524,0,0,-9.827,-9.8293,-9.8383,-9.8406,-9.8439,-9.8432,-9.8454,-9.8476,-9.8479,-9.8573,-9.8523,-9.8578,-9.8675,-9.8697,-9.8721,-9.8896,-9.8853,-9.8914,-9.9011,-9.9073,-9.9093,-9.911,-9.9168,-9.919,-9.8927,-9.8927,-9.8927,0,-9.8359,-9.8458,-9.8434,-9.8511,-9.854,-9.8484,-9.8573,-9.8596,-9.8644,-9.8664,-9.8621,-9.8739,-9.8756,-9.887,-9.8913,-9.8936,-9.8956,-9.8909,-9.9092,-9.911,-9.9126,-9.918,-9.9203,-9.8934,-9.8933,-9.8932,-9.8932,0,-9.8563,-9.8632,-9.8701,-9.8748,-9.8786,-9.8869,-9.8855,-9.8896,-9.8872,-9.8869,-9.8963,-9.8981,-9.9033,-9.9059,-9.9037,-9.917,-9.9144,-9.9098,-9.9018,-9.9157,-9.9208,-9.9229,-9.8944,-9.8941,-9.8939,-9.8937,0,0,-9.8796,-9.8828,-9.8853,-9.8872,-9.8903,-9.8954,-9.9033,-9.9084,-9.9118,-9.9153,-9.9215,-9.9297,-9.9253,-9.928,-9.926,-9.9315,-9.9446,-9.926,-9.926,-9.929,-9.9588,-9.962,-9.9645,-9.942,-9.9424,-9.9427,-9.9584,0,-9.8962,-9.9099,-9.9079,-9.9209,-9.927,-9.9216,-9.9284,-9.9309,-9.9308,-9.9357,-9.9356,-9.9413,-9.9353,-9.9368,-9.942,-9.9419,-9.9505,-9.9408,-9.9473,-9.9476,-9.9464,-9.9672,-9.9707,-9.9854,-9.9604,-9.9608,-9.961,0,-9.9175,-9.9216,-9.9353,-9.9371,-9.9395,-9.9457,-9.95,-9.9549,-9.9575,-9.957,-9.9599,-9.9568,-9.9643,-9.9565,-9.9665,-9.96,-9.9626,-9.9629,-9.9634,-9.9636,-9.9549,-9.9675,-9.9901,-9.9921,-9.9642,-9.9639,-9.9637,0,-9.9325,-9.9415,-9.9507,-9.9526,-9.955,-9.9594,-9.9606,-9.9627,-9.9658,-9.9695,-9.9714,-9.976,-9.9784,-9.982,-9.98,-9.9746,-9.9902,-9.9824,-9.9897,-9.9897,-9.9929,-9.9926,-10.0157,-9.9953,-9.9953,-9.9953,-9.9952,0,-9.951,-9.9594,-9.9574,-9.9631,-9.9722,-9.9697,-9.9788,-9.9793,-9.9812,-9.9866,-9.9824,-9.9875,-9.9848,-9.9897,-9.9883,-9.9965,-9.9978,-9.9973,-9.9967,-9.9974,-9.9974,-9.9987,-9.9975,-9.9958,-9.9957,-9.9956,-9.9955,0,-9.9692,-9.9683,-9.9778,-9.9793,-9.9799,-9.9865,-9.9877,-9.9928,-9.9923,-9.9992,-10.0007,-9.9999,-10.0054,-10.0039,-10.0099,-10.0089,-10.0191,-10.0175,-10.0183,-10.0177,-10.0248,-10.024,-10.0493,-10.0522,-10.0304,-10.0306,-10.0308,0,-9.9808,-9.9872,-9.9893,-9.9926,-9.9941,-9.9997,-10.0027,-10.0004,-10.0038,-10.007,-10.0116,-10.0167,-10.0206,-10.0296,-10.0294,-10.0338,-10.032,-10.0405,-10.0326,-10.033,-10.0315,-10.031,-10.0313,-10.042,-10.0422,-10.0424,-10.0426,0,-10.0015,-10.0006,-10.0053,-10.0098,-10.0135,-10.0169,-10.0199,-10.0229,-10.0207,-10.0247,-10.0302,-10.0332,-10.0392,-10.0442,-10.0482,-10.0491,-10.0454,-10.0452,-10.047,-10.0475,-10.0475,-10.0471,-10.0221,-10.0445,-10.0443,-10.0442,-10.0441,-10.044,-10.0164,-10.0216,-10.0238,-10.029,-10.031,-10.0338,-10.0385,-10.0387,-10.0433,-10.048,-10.0464,-10.0526,-10.0546,-10.0596,-10.0611,-10.0657,-10.0624,-10.0652,-10.0658,-10.0664,-10.0671,-10.0472,-10.0665,-10.0665,-10.0664,-10.0664,-10.0663,0,-10.0363,-10.0374,-10.0423,-10.0465,-10.0505,-10.0469,-10.0499,-10.0534,-10.059,-10.0613,-10.0652,-10.0713,-10.0761,-10.0763,-10.0807,-10.0843,-10.0827,-10.0855,-10.0849,-10.0851,-10.07,-10.0678,-10.0867,-10.0867,-10.0867,-10.0867,-10.0867,-10.0867,-10.0471,-10.0555,-10.0549,-10.0642,-10.0652,-10.0713,-10.0732,-10.0757,-10.0774,-10.0845,-10.0884,-10.0886,-10.0899,-10.0943,-10.0984,-10.0983,-10.0999,-10.1032,-10.1025,-10.0883,-10.0862,-10.0843,-10.0821,-10.1037,-10.1038,-10.1171,-10.1172,-10.1173]}]]